Change the Weather History Date:

Saturday, March 23, 2013

  Actual Average Record
Temperature  
Mean Temperature 34 °F -  
Max Temperature 36 °F 59 °F 77 °F (2004)
Min Temperature 32 °F 38 °F 24 °F (2002)
Degree Days  
Heating Degree Days 31    
Moisture  
Dew Point 33 °F    
Average Humidity 100    
Maximum Humidity 100    
Minimum Humidity 99    
Precipitation  
Precipitation 0.15 in - - ()
Sea Level Pressure  
Sea Level Pressure 29.89 in    
Wind  
Wind Speed 13 mph (NE)    
Max Wind Speed 23 mph    
Max Gust Speed 31 mph    
Visibility 4 miles    
Events Rain , Snow    
Averages and records for this station are not official NWS values.
T = Trace of Precipitation, MM = Missing Value Source: NWS Daily Summary

Daily Weather History Graph

Daily Weather History Graph

Search for Another Location

Airport or City:

Trip Planner

Search our weather history database for the weather conditions in past years. The results will help you decide how hot, cold, wet, or windy it might be!

Date:

Astronomy

Mar. 23, 2013 Rise Set
Actual Time 7:27 AM CDT 7:43 PM CDT
Civil Twilight 7:01 AM CDT 8:10 PM CDT
Nautical Twilight 6:30 AM CDT 8:40 PM CDT
Astronomical Twilight 5:59 AM CDT 9:12 PM CDT
Moon 4:15 PM CDT (3/23) 5:00 AM CDT (3/23)
Length of Visible Light 13h 08m
Length of Day
12h 16m
Waxing Gibbous, 85% of the Moon is Illuminated
Mar 23
Waxing Gibbous
Mar 27
Full
Apr 2
Last Quarter
Apr 10
New
Apr 18
First Quarter

Hourly Weather History & Observations

Time (CDT) Temp. Windchill Dew Point Humidity Pressure Visibility Wind Dir Wind Speed Gust Speed Precip Events Conditions
12:58 AM 36.3 °F 28.9 °F 36.3 °F 100% 29.96 in 10.0 mi East 10.4 mph - N/A   Overcast
1:43 AM 35.6 °F 29.9 °F 35.6 °F 100% 29.93 in 10.0 mi ESE 6.9 mph - N/A   Overcast
1:58 AM 36.5 °F 29.7 °F 36.3 °F 99% 29.97 in 10.0 mi East 9.2 mph - N/A   Overcast
2:58 AM 36.0 °F 28.0 °F 36.0 °F 100% 29.94 in 10.0 mi East 11.5 mph - N/A   Overcast
3:03 AM 35.6 °F 28.6 °F 35.6 °F 100% 29.92 in 10.0 mi East 9.2 mph - N/A   Overcast
3:28 AM 35.6 °F 28.6 °F 35.6 °F 100% 29.92 in 10.0 mi ENE 9.2 mph - N/A   Overcast
3:48 AM 35.6 °F 29.2 °F 35.6 °F 100% 29.91 in 10.0 mi East 8.1 mph - N/A   Overcast
3:58 AM 35.6 °F 27.5 °F 35.6 °F 100% 29.94 in 8.0 mi ENE 11.5 mph - N/A   Overcast
4:03 AM 35.6 °F 29.2 °F 35.6 °F 100% 29.90 in 7.0 mi ENE 8.1 mph - N/A   Overcast
4:23 AM 35.6 °F 28.0 °F 35.6 °F 100% 29.90 in 5.0 mi ENE 10.4 mph - N/A   Overcast
4:33 AM 33.8 °F 25.8 °F 33.8 °F 100% 29.89 in 5.0 mi ENE 10.4 mph - N/A   Overcast
4:43 AM 33.8 °F 25.3 °F 33.8 °F 100% 29.88 in 4.0 mi ENE 11.5 mph - N/A   Overcast
4:58 AM 34.5 °F 26.2 °F 34.5 °F 100% 29.92 in 3.0 mi ENE 11.5 mph - N/A   Overcast
5:49 AM 33.8 °F 25.8 °F 33.8 °F 100% 29.90 in 3.0 mi ENE 10.4 mph - N/A   Overcast
5:54 AM 33.8 °F 26.4 °F 33.8 °F 100% 29.90 in 3.0 mi ENE 9.2 mph - N/A   Overcast
5:58 AM 34.0 °F 25.5 °F 34.0 °F 100% 29.93 in 3.0 mi ENE 11.5 mph - 0.00 in   Overcast
5:59 AM 33.8 °F 25.8 °F 33.8 °F 100% 29.90 in 4.0 mi ENE 10.4 mph - N/A   Overcast
6:50 AM 32.0 °F 23.6 °F 32.0 °F 100% 29.90 in 4.0 mi ENE 10.4 mph - N/A   Overcast
6:55 AM 32.0 °F 22.5 °F 32.0 °F 100% 29.91 in 4.0 mi ENE 12.7 mph - N/A   Overcast
6:58 AM 33.4 °F 24.3 °F 33.4 °F 100% 29.94 in 4.0 mi ENE 12.7 mph - 0.00 in   Overcast
7:28 AM 32.0 °F 23.0 °F 32.0 °F 100% 29.91 in 4.0 mi East 11.5 mph - N/A   Overcast
7:38 AM 32.0 °F 22.5 °F 32.0 °F 100% 29.90 in 3.0 mi East 12.7 mph - N/A   Overcast
7:43 AM 32.0 °F 22.5 °F 32.0 °F 100% 29.91 in 2.5 mi East 12.7 mph - N/A   Overcast
7:58 AM 33.6 °F 25.6 °F 33.6 °F 100% 29.96 in 2.0 mi East 10.4 mph - N/A   Overcast
8:03 AM 32.0 °F 24.8 °F 32.0 °F 100% 29.92 in 1.8 mi East 8.1 mph - N/A   Overcast
8:18 AM 32.0 °F 23.6 °F 32.0 °F 100% 29.93 in 2.0 mi ENE 10.4 mph - N/A   Overcast
8:23 AM 32.0 °F 24.2 °F 32.0 °F 100% 29.94 in 3.0 mi NE 9.2 mph - N/A   Overcast
8:38 AM 33.8 °F 24.8 °F 33.8 °F 100% 29.93 in 4.0 mi NE 12.7 mph - N/A   Overcast
8:48 AM 33.8 °F 24.3 °F 33.8 °F 100% 29.93 in 4.0 mi ENE 13.8 mph - N/A   Overcast
8:49 AM 33.8 °F 23.5 °F 33.8 °F 100% 29.93 in 4.0 mi ENE 16.1 mph - N/A Rain Light Rain
8:58 AM 33.8 °F 23.9 °F 33.8 °F 100% 29.95 in 2.5 mi ENE 15.0 mph - 0.00 in Snow Light Snow
9:25 AM 32.0 °F 21.2 °F 32.0 °F 100% 29.90 in 3.0 mi ENE 16.1 mph - N/A Rain Light Freezing Rain
9:45 AM 32.0 °F 23.0 °F 32.0 °F 100% 29.93 in 3.0 mi NNE 11.5 mph - N/A Rain Light Rain
9:49 AM 32.0 °F 22.5 °F 32.0 °F 100% 29.93 in 2.5 mi NNE 12.7 mph - N/A Rain Light Freezing Rain
9:50 AM 32.0 °F 22.5 °F 32.0 °F 100% 29.93 in 2.5 mi NNE 12.7 mph - N/A Rain Light Rain
9:58 AM 32.9 °F 23.2 °F 32.9 °F 100% 29.98 in 2.5 mi NNE 13.8 mph - 0.01 in Snow Light Snow
10:08 AM 32.0 °F 23.0 °F 32.0 °F 100% 29.94 in 3.0 mi NE 11.5 mph - N/A Rain Light Rain
10:23 AM 32.0 °F 22.1 °F 32.0 °F 100% 29.94 in 4.0 mi NE 13.8 mph - N/A Snow Light Snow
10:33 AM 32.0 °F 22.5 °F 32.0 °F 100% 29.94 in 2.0 mi NE 12.7 mph - N/A Snow Light Snow
10:38 AM 32.0 °F 22.1 °F 32.0 °F 100% 29.94 in 1.5 mi NE 13.8 mph - N/A Snow Light Snow
10:43 AM 32.0 °F 23.0 °F 32.0 °F 100% 29.93 in 1.0 mi NE 11.5 mph - N/A Snow Light Snow
10:48 AM 32.0 °F 22.5 °F 32.0 °F 100% 29.93 in 0.8 mi NE 12.7 mph - N/A Snow Light Snow
10:58 AM 32.5 °F 23.7 °F 32.5 °F 100% 29.96 in 0.8 mi NE 11.5 mph - 0.03 in Snow Light Snow
11:03 AM 32.0 °F 21.6 °F 32.0 °F 100% 29.91 in 0.8 mi NE 15.0 mph - N/A Snow Light Snow
11:08 AM 32.0 °F 21.2 °F 32.0 °F 100% 29.91 in 0.8 mi NE 16.1 mph - N/A Snow Light Snow
11:28 AM 32.0 °F 22.5 °F 32.0 °F 100% 29.90 in 0.8 mi ENE 12.7 mph - N/A Snow Light Snow
11:33 AM 32.0 °F 22.1 °F 32.0 °F 100% 29.91 in 1.0 mi ENE 13.8 mph - N/A Snow Light Snow
11:38 AM 32.0 °F 23.0 °F 32.0 °F 100% 29.91 in 1.0 mi ENE 11.5 mph - N/A Snow Light Snow
11:43 AM 32.0 °F 22.5 °F 32.0 °F 100% 29.91 in 1.2 mi ENE 12.7 mph - N/A Snow Light Snow
11:48 AM 32.0 °F 21.6 °F 32.0 °F 100% 29.90 in 1.8 mi ENE 15.0 mph - N/A Snow Light Snow
11:53 AM 32.0 °F 21.6 °F 32.0 °F 100% 29.90 in 3.0 mi NE 15.0 mph - N/A Snow Light Snow
11:58 AM 33.1 °F 23.4 °F 33.1 °F 100% 29.94 in 3.0 mi NE 13.8 mph - 0.04 in Snow Light Snow
12:03 PM 32.0 °F 22.1 °F 32.0 °F 100% 29.89 in 3.0 mi NE 13.8 mph - N/A Snow Light Snow
12:23 PM 32.0 °F 22.5 °F 32.0 °F 100% 29.89 in 2.0 mi ENE 12.7 mph - N/A Snow Light Snow
12:28 PM 32.0 °F 23.6 °F 32.0 °F 100% 29.89 in 1.8 mi ENE 10.4 mph - N/A Snow Light Snow
12:43 PM 32.0 °F 23.6 °F 32.0 °F 100% 29.89 in 1.2 mi NE 10.4 mph - N/A Snow Light Snow
12:48 PM 32.0 °F 23.6 °F 32.0 °F 100% 29.90 in 1.0 mi ENE 10.4 mph - N/A Snow Light Snow
12:53 PM 32.0 °F 23.0 °F 32.0 °F 100% 29.89 in 0.8 mi NE 11.5 mph - N/A Snow Light Snow
12:58 PM 32.0 °F 22.5 °F 32.0 °F 100% 29.93 in 0.8 mi NE 12.7 mph - 0.02 in Snow Light Snow
1:03 PM 32.0 °F 22.5 °F 32.0 °F 100% 29.88 in 1.0 mi ENE 12.7 mph - N/A Snow Light Snow
1:08 PM 32.0 °F 22.5 °F 32.0 °F 100% 29.87 in 1.5 mi ENE 12.7 mph - N/A Snow Light Snow
1:13 PM 32.0 °F 23.0 °F 32.0 °F 100% 29.88 in 1.8 mi NE 11.5 mph - N/A Snow Light Snow
1:18 PM 32.0 °F 21.2 °F 32.0 °F 100% 29.87 in 2.0 mi ENE 16.1 mph - N/A Snow Light Snow
1:23 PM 32.0 °F 22.1 °F 32.0 °F 100% 29.87 in 2.0 mi ENE 13.8 mph - N/A Snow Light Snow
1:28 PM 32.0 °F 22.5 °F 32.0 °F 100% 29.86 in 2.5 mi NE 12.7 mph - N/A Snow Light Snow
1:33 PM 32.0 °F 22.1 °F 32.0 °F 100% 29.86 in 2.5 mi ENE 13.8 mph - N/A Rain Light Freezing Rain
1:38 PM 32.0 °F 21.6 °F 32.0 °F 100% 29.85 in 3.0 mi ENE 15.0 mph - N/A Rain Light Freezing Rain
1:46 PM 32.0 °F 22.1 °F 32.0 °F 100% 29.85 in 3.0 mi ENE 13.8 mph - N/A Rain Light Freezing Rain
1:47 PM 33.8 °F 24.3 °F 33.8 °F 100% 29.85 in 3.0 mi ENE 13.8 mph - N/A Rain Light Rain
1:53 PM 32.0 °F 21.6 °F 32.0 °F 100% 29.84 in 3.0 mi NE 15.0 mph - N/A Rain Light Freezing Rain
1:54 PM 32.0 °F 21.6 °F 32.0 °F 100% 29.84 in 3.0 mi NE 15.0 mph - N/A Rain Light Freezing Rain
1:55 PM 32.0 °F 22.1 °F 32.0 °F 100% 29.84 in 3.0 mi NE 13.8 mph - N/A Rain Light Freezing Rain
1:58 PM 32.0 °F 23.0 °F 32.0 °F 100% 29.88 in 4.0 mi NE 11.5 mph - 0.02 in Rain Light Freezing Rain
2:00 PM 32.0 °F 21.6 °F 32.0 °F 100% 29.84 in 3.0 mi NE 15.0 mph - N/A Rain Light Rain
2:35 PM 33.8 °F 25.8 °F 33.8 °F 100% 29.85 in 3.0 mi NE 10.4 mph - N/A Snow Light Snow
2:58 PM 34.0 °F 24.6 °F 34.0 °F 100% 29.88 in 6.0 mi NE 13.8 mph - 0.00 in Rain Light Rain
3:05 PM 33.8 °F 24.3 °F 33.8 °F 100% 29.84 in 6.0 mi ENE 13.8 mph - N/A   Overcast
3:07 PM 33.8 °F 24.8 °F 33.8 °F 100% 29.83 in 6.0 mi ENE 12.7 mph - N/A   Light Drizzle
3:31 PM 33.8 °F 25.3 °F 33.8 °F 100% 29.83 in 6.0 mi NE 11.5 mph - N/A   Overcast
3:50 PM 33.8 °F 24.8 °F 33.8 °F 100% 29.83 in 6.0 mi NE 12.7 mph - N/A   Light Drizzle
3:58 PM 34.3 °F 25.0 °F 34.3 °F 100% 29.87 in 6.0 mi NE 13.8 mph - 0.00 in Rain Light Rain
4:18 PM 33.8 °F 24.3 °F 33.8 °F 100% 29.82 in 2.5 mi ENE 13.8 mph - N/A Rain Light Rain
4:53 PM 33.8 °F 25.3 °F 33.8 °F 100% 29.82 in 1.8 mi NE 11.5 mph - N/A   Overcast
4:58 PM 34.3 °F 25.5 °F 34.3 °F 100% 29.86 in 1.8 mi NE 12.7 mph - 0.01 in   Overcast
5:13 PM 33.8 °F 24.3 °F 33.8 °F 100% 29.84 in 2.0 mi NE 13.8 mph - N/A   Overcast
5:23 PM 33.8 °F 23.9 °F 33.8 °F 100% 29.83 in 2.0 mi NE 15.0 mph - N/A   Overcast
5:28 PM 33.8 °F 24.3 °F 33.8 °F 100% 29.83 in 2.0 mi NE 13.8 mph - N/A   Overcast
5:29 PM 33.8 °F 24.8 °F 33.8 °F 100% 29.83 in 1.8 mi NE 12.7 mph - N/A Rain Light Freezing Rain
5:32 PM 33.8 °F 24.3 °F 33.8 °F 100% 29.83 in 1.8 mi ENE 13.8 mph - N/A Snow Light Snow
5:42 PM 33.8 °F 23.5 °F 33.8 °F 100% 29.83 in 2.0 mi NE 16.1 mph - N/A Snow Light Snow
5:49 PM 33.8 °F 23.9 °F 33.8 °F 100% 29.84 in 2.5 mi NE 15.0 mph - N/A Rain Light Freezing Rain
5:50 PM 33.8 °F 23.5 °F 33.8 °F 100% 29.84 in 2.5 mi NE 16.1 mph - N/A   Overcast
5:58 PM 34.2 °F 24.0 °F 34.2 °F 100% 29.88 in 2.5 mi NE 16.1 mph - 0.01 in Rain Light Rain
6:13 PM 33.8 °F 23.9 °F 33.8 °F 100% 29.85 in 3.0 mi NNE 15.0 mph - N/A Rain Light Rain
6:18 PM 32.0 °F 21.2 °F 32.0 °F 100% 29.85 in 3.0 mi NNE 16.1 mph - N/A Rain Light Rain
6:38 PM 32.0 °F 20.5 °F 32.0 °F 100% 29.86 in 2.5 mi NNE 18.4 mph - N/A Rain Light Rain
6:58 PM 33.1 °F 22.2 °F 33.1 °F 100% 29.91 in 2.5 mi NE 17.3 mph - 0.00 in Rain Light Rain
7:08 PM 32.0 °F 20.5 °F 32.0 °F 100% 29.87 in 2.5 mi NNE 18.4 mph 24.2 mph N/A Rain Light Rain
7:09 PM 32.0 °F 20.5 °F 32.0 °F 100% 29.87 in 2.5 mi NNE 18.4 mph 24.2 mph N/A Rain Light Rain
7:13 PM 32.0 °F 20.5 °F 32.0 °F 100% 29.88 in 3.0 mi NNE 18.4 mph 24.2 mph N/A Rain Light Rain
7:18 PM 32.0 °F 20.5 °F 32.0 °F 100% 29.88 in 3.0 mi NNE 18.4 mph - N/A Rain Light Rain
7:23 PM 32.0 °F 21.6 °F 32.0 °F 100% 29.88 in 2.5 mi NE 15.0 mph - N/A Rain Light Rain
7:33 PM 32.0 °F 20.8 °F 32.0 °F 100% 29.87 in 1.8 mi NE 17.3 mph - N/A   Overcast
7:38 PM 32.0 °F 21.2 °F 32.0 °F 100% 29.87 in 1.8 mi NNE 16.1 mph 21.9 mph N/A   Overcast
7:43 PM 32.0 °F 21.2 °F 32.0 °F 100% 29.88 in 2.0 mi NNE 16.1 mph - N/A   Overcast
7:48 PM 32.0 °F 21.2 °F 32.0 °F 100% 29.88 in 2.0 mi NNE 16.1 mph - N/A   Overcast
7:53 PM 32.0 °F 22.5 °F 32.0 °F 100% 29.86 in 2.5 mi NNE 12.7 mph - N/A Rain Light Freezing Rain
7:58 PM 32.5 °F 21.5 °F 32.5 °F 100% 29.89 in 2.5 mi NNE 17.3 mph - 0.00 in Rain Light Freezing Rain
8:00 PM 32.0 °F 20.5 °F 32.0 °F 100% 29.85 in 3.0 mi NE 18.4 mph - N/A Snow Light Snow
8:05 PM 32.0 °F 19.2 °F 32.0 °F 100% 29.82 in 3.0 mi NE 23.0 mph 28.8 mph N/A Snow Light Snow
8:22 PM 32.0 °F 19.8 °F 32.0 °F 100% 29.81 in 5.0 mi NE 20.7 mph 31.1 mph N/A Rain Light Freezing Rain
8:23 PM 32.0 °F 19.5 °F 32.0 °F 100% 29.81 in 5.0 mi NE 21.9 mph 31.1 mph N/A Rain Light Rain
8:28 PM 32.0 °F 19.5 °F 32.0 °F 100% 29.81 in 6.0 mi NE 21.9 mph 26.5 mph N/A Rain Light Rain
8:33 PM 32.0 °F 19.2 °F 32.0 °F 100% 29.81 in 7.0 mi NE 23.0 mph 28.8 mph N/A Rain Light Rain
8:53 PM 32.0 °F 19.5 °F 32.0 °F 100% 29.83 in 10.0 mi NNE 21.9 mph 31.1 mph N/A Rain Light Rain
8:58 PM 32.4 °F 19.7 °F 32.4 °F 100% 29.89 in 10.0 mi NNE 23.0 mph 29.9 mph 0.00 in Rain Light Rain
9:03 PM 32.0 °F 20.1 °F 32.0 °F 100% 29.85 in 10.0 mi NNE 19.6 mph 29.9 mph N/A Rain Light Rain
9:28 PM 32.0 °F 20.5 °F 32.0 °F 100% 29.86 in 10.0 mi NNE 18.4 mph 26.5 mph N/A   Light Drizzle
9:29 PM 32.0 °F 20.5 °F 32.0 °F 100% 29.86 in 10.0 mi NNE 18.4 mph 26.5 mph N/A   Overcast
9:58 PM 33.1 °F 21.9 °F 33.1 °F 100% 29.94 in 10.0 mi NNE 18.4 mph - 0.00 in   Overcast
10:30 PM 32.0 °F 22.1 °F 32.0 °F 100% 29.90 in 10.0 mi NNE 13.8 mph - N/A Rain Light Rain
10:40 PM 32.0 °F 20.5 °F 32.0 °F 100% 29.89 in 10.0 mi NNE 18.4 mph - N/A Rain Light Rain
10:45 PM 32.0 °F 19.8 °F 32.0 °F 100% 29.88 in 10.0 mi NNE 20.7 mph - N/A Rain Light Rain
10:55 PM 32.0 °F 19.2 °F 32.0 °F 100% 29.88 in 10.0 mi NNE 23.0 mph 28.8 mph N/A Snow Light Snow
10:58 PM 32.0 °F 19.8 °F 32.0 °F 100% 29.93 in 10.0 mi NNE 20.7 mph 28.8 mph 0.00 in Snow Light Snow
11:01 PM 32.0 °F 20.1 °F 32.0 °F 100% 29.87 in 8.0 mi North 19.6 mph 28.8 mph N/A Snow Light Snow
11:06 PM 32.0 °F 20.1 °F 32.0 °F 100% 29.88 in 6.0 mi North 19.6 mph - N/A Snow Light Snow
11:11 PM 32.0 °F 20.5 °F 32.0 °F 100% 29.89 in 4.0 mi North 18.4 mph 25.3 mph N/A Snow Light Snow
11:21 PM 32.0 °F 21.6 °F 32.0 °F 100% 29.89 in 2.5 mi North 15.0 mph - N/A Snow Light Snow
11:26 PM 32.0 °F 21.2 °F 32.0 °F 100% 29.89 in 2.5 mi North 16.1 mph - N/A Snow Light Snow
11:36 PM 32.0 °F 20.1 °F 32.0 °F 100% 29.89 in 1.8 mi North 19.6 mph 25.3 mph N/A Snow Light Snow
11:56 PM 32.0 °F 21.6 °F 32.0 °F 100% 29.89 in 1.2 mi North 15.0 mph - N/A Snow Light Snow
11:58 PM 32.0 °F 21.6 °F 32.0 °F 100% 29.94 in 1.2 mi North 15.0 mph - 0.01 in Snow Light Snow